www.pogodaiklimat.ru

Погода и климат >> Архив погоды >> Монголия >> Улан-Батор аэропорт


ПОГОДА в Улан-Батор аэропорту

  • Прогноз погоды в Улан-Батор аэропорту
  • Монитор погоды в Улан-Батор аэропорту

АРХИВ ПОГОДЫ в Улан-Батор аэропорту

Время (UTC), дата Ветер
(напр.,м/с)
 
Видим.   Явления Облачность Т
(С)
Тd
(С)
f
(%)
Тe
(С)
Тes
(С)
Комфортность P
(гПа)
Po
(гПа)
Тmin
(С)
Tmax
(С)
R
(мм)
R24
(мм)
S
(см)
03 10.06 СВ 1 20 км слаб. ливневой дождь 9/9 600 м
[Cb cap]
+19.0 +9.8 55 +21 +23 комфорт 1007.0 867.9
06 10.06 ЮВ 5 50 км {ливн. осадки, дождь} 9/6 600 м
[Cb calv Ac lent Ci]
+25.4 +6.1 29 +25 +27 комфорт 1001.9 866.3
09 10.06 Ю 7 50 км {ливн. осадки} 9/6 600 м
[Cb calv Ac trans Ci]
+27.1 +3.6 22 +26 +26 жарко 998.0 863.6
12 10.06 ЮВ 8 50 км {ливн. осадки} 9/8 600 м
[Cb calv Ac und]
+26.9 +2.1 20 +25 +25 комфорт 996.0 861.8 +29.0 0.0
15 10.06 Ю 8 н/о 9/9 600 м
[Cb cap]
+24.5 +4.3 27 +24 +24 комфорт 998.3 862.7
18 10.06 ЮЗ 4 н/о 8/8 1000 м
[Sc]
+21.6 +6.7 38 +22 +22 комфорт 1000.5 863.4
21 10.06 З 2 50 км 9/5 1000 м
[Sc Ac und]
+17.7 +7.4 51 +18 +18 1003.4 864.2
00 11.06 ЮЗ 4 50 км 8/4 1000 м
[Sc Ac trans]
+19.5 +9.4 52 +20 +22 1004.4 865.9 +17.5
03 11.06 З 7 50 км 4/1 1000 м
[Cu hum Ac lent]
+26.1 -0.1 18 +24 +27 комфорт 1008.8 865.5
06 11.06 З 8
{12}
50 км 3/0
[Ci]
+27.8 -2.1 14 +25 +28 комфорт 999.5 865.3
09 11.06 СЗ 10
{16}
50 км 3/0
[Ci]
+28.3 -1.7 14 +26 +26 жарко 999.1 865.0
12 11.06 СЗ 7 50 км 9/6 600 м
[Cb calv As op]
+22.8 +1.8 25 +22 +22 комфорт 1004.7 867.6 +28.8
15 11.06 С 4 н/о 9/5 1000 м
[Sc Ac As]
+17.7 +7.2 50 +17 +17 1010.0 869.9
18 11.06 С 5 н/о 5/3 1000 м
[Sc Ac trans]
+14.8 +6.1 56 +13 +13 1012.0 870.3
21 11.06 С 5 50 км 4/0 2000 м
[Ac trans]
+12.0 +4.7 61 +10 +10 1015.1 871.7
00 12.06 СВ 3 50 км 9/0 2000 м
[Ac As]
+16.1 +2.2 39 +16 +17 1014.3 872.9 +11.8
03 12.06 СЗ 7 50 км 9/1 1000 м
[Cu hum Ac trans Cs]
+20.0 +2.8 32 +20 +22 1012.9 873.4
06 12.06 С 6 50 км 8/4 1000 м
[Cu med, cong Ac lent Ci]
+20.7 +2.5 30 +21 +24 комфорт 1012.0 872.9
09 12.06 С 7 50 км 5/5 1000 м
[Cu med, cong]
+22.2 +2.8 28 +22 +23 комфорт 1009.9 871.8
12 12.06 С 6 50 км 3/0 2000 м
[Ac lent Ci]
+19.3 +2.6 33 +19 +19 1011.7 872.1 +23.2
15 12.06 Ю 3 н/о ясно +10.4 +2.0 56 +9 +9 1017.6 873.0
18 12.06 Ю 2 н/о ясно +6.7 +1.4 69 +5 +5 1020.1 873.5
21 12.06 ЮВ 2 50 км ясно +3.6 +0.1 78 +1 +1 1021.5 873.3
00 13.06 СВ 2 50 км 3/0
[Ci]
+14.6 +3.4 47 +14 +19 1015.5 873.3 +3.6
03 13.06 СЗ 2 50 км 5/1 1000 м
[Cu hum Ci]
+21.7 +4.3 32 +22 +35 комфорт 1010.8 872.5
06 13.06 СЗ 5
{11}
50 км 8/1 1000 м
[Cu hum Cs]
+25.5 +1.6 21 +24 +31 комфорт 1006.2 870.1
09 13.06 СЗ 3 50 км 8/1 1000 м
[Cu hum Ac trans Ci]
+27.1 +2.9 21 +26 +29 жарко 1004.0 868.7
12 13.06 В 2 50 км 6/0 2000 м
[Ac lent Ci]
+25.1 +1.9 22 +24 +24 комфорт 1004.5 868.4 +27.5
15 13.06 Ю 1 н/о ясно +14.2 +1.1 41 +15 +15 1010.6 868.8
18 13.06 З 1 н/о ясно +13.7 +2.0 45 +14 +14 1010.6 868.7
21 13.06 З 2 50 км 9/3 1000 м
[Sc Ac und]
+13.2 +2.7 49 +13 +13 1010.7 868.5
00 14.06 ЮЗ 1 50 км 8/0 2000 м
[Ac und]
+18.1 +4.3 40 +19 +22 1008.1 868.4 +9.9
03 14.06 Ю 6 50 км 6/0 2000 м
[Ac trans Ci]
+27.7 -0.4 16 +25 +30 комфорт 1002.1 867.4
06 14.06 Ю 6
{14}
50 км 6/1 1000 м
[Cu hum Ac trans Ci]
+29.8 +0.4 15 +27 +32 жарко 999.1 865.5
09 14.06 Ю 7 50 км 9/3 1000 м
[Cu hum Ac As]
+29.1 -0.2 15 +26 +27 жарко 997.9 864.3
12 14.06 Ю 4 50 км 9/3 1000 м
[Cu med, cong Ac As]
+26.0 -1.8 16 +24 +24 комфорт 999.6 864.6 +31.1
15 14.06 ЮВ 7 н/о 8/5 1000 м
[Sc Ac und]
+23.4 -3.8 16 +22 +22 комфорт 1000.5 864.2
18 14.06 ЮВ 7 н/о 8/4 1000 м
[Sc Ac und]
+22.5 -2.3 19 +21 +21 комфорт 1000.7 864.0
21 14.06 ЮВ 9 50 км 9/9 1000 м
[Sc]
+22.2 -0.5 22 +21 +21 комфорт 1000.4 864.7
00 15.06 Ю 10
{17}
20 км слаб. ливневой дождь 10/10 600 м
[Cb cap]
+14.4 +11.2 81 +12 +12 1005.9 864.9 +14.3 1
03 15.06 ЮВ 16-23
{23}
20 км слаб. ливневой дождь туман 9/9 600 м
[Cb cap]
+16.7 +10.3 66 +14 +14 1002.6 863.0
06 15.06 ЮВ 17-23
{26}
50 км шквал {ливн. осадки} 6/6 600 м
[Cb cap]
+20.0 +7.4 44 +20 +20 1000.2 862.4
09 15.06 ЮВ 11-17
{26}
50 км 4/4 1000 м
[Cu med, cong]
+20.2 +9.5 50 +21 +21 комфорт 998.7 861.3
12 15.06 ЮВ 17-23
{24}
50 км шквал {гроза, ливн. осадки} 9/9 600 м
[Cb cap]
+19.1 +9.6 54 +18 +18 998.3 860.5 +21.5 0.8
15 15.06 В 10
{23}
н/о гроза, ливневой дождь туман 10/10 600 м
[Cb cap]
+15.0 +8.5 65 +13 +13 1002.0 861.8
18 15.06 СВ 5 н/о гроза, ливневой дождь 9/9 600 м
[Cb cap]
+14.7 +8.4 66 +13 +13 1002.3 861.9
21 15.06 В 5 50 км {гроза, ливн. осадки} 9/5 600 м
[Sc As trans]
+14.7 +9.7 72 +13 +13 1002.7 862.3
00 16.06 В 6-13
{16}
50 км {гроза} 8/5 600 м
[Cu Sc Ac lent Ci]
+16.1 +7.3 56 +15 +16 1002.4 862.7 +13.5 5
03 16.06 ЮВ 14 50 км шквал 8/8 600 м
[Cb calv]
+18.9 +8.8 52 +18 +18 1001.1 862.8
06 16.06 ЮВ 10 50 км 8/8 600 м
[Cb calv]
+18.6 +9.7 56 +18 +18 1001.5 863.0
09 16.06 Ю 13-20
{20}
20 км гроза, ливневой дождь 9/9 600 м
[Cb cap]
+13.1 +9.0 76 +9 +9 1004.8 863.4
15 16.06 В 6 н/о слаб. ливневой дождь 9/9 600 м
[Cb cap]
+15.0 +10.0 72 +13 +13 1005.7 865.0
18 16.06 З 2 н/о {ливн. осадки} 10/10 600 м
[Sc]
+13.2 +10.0 81 +12 +12 1007.3 865.5
21 16.06 С 2 50 км 9/9 600 м
[Cb calv]
+13.4 +9.1 75 +13 +13 1007.4 865.7
00 17.06 СВ 2 20 км слаб. ливневой дождь 9/9 600 м
[Cb cap]
+11.9 +11.1 95 +11 +11 1009.5 866.8 +11.6 4

 

Местоположение метеостанции Улан-Батор аэропорт (Монголия): широта 47.85 долгота 106.85 высота над уровнем моря 1272 м.

В архиве по умолчанию представлена погода в Улан-Батор аэропорту за последнюю неделю. Архивные данные за месяц целиком и за предыдущие месяцы, начиная с января 2011 года, Вы можете получить, выбрав интересующий диапазон дат из раскрывающегося списка и нажав кнопку "Ввод!".


*Определитесь, кто Вы:
робот инопланетянин человек

Внимание! Время в таблицах - всемирное. Для получения местного времени необходимо прибавить поправку, которая равна 8 ч.

Смотрите также архив погоды в соседних городах и на ближайших метеорологических станциях:

Погода в Улан-Баторе (Монголия) (8 км)
Погода в Маанти (Монголия) (77 км)
Погода в Баруунхараа (Монголия) (133 км)
Погода в Хадатыне (Монголия) (180 км)
Погода в Чойре (Монголия) (187 км)
Погода в Мензе (Забайкальский край, Россия) (227 км)
Погода в Улыгайин Дуганг (Монголия) (229 км)
Погода в Мандалгоби (Монголия) (235 км)
Погода в Бат Олжий Вунд (Монголия) (250 км)
Погода в Булгане (Монголия) (266 км)

Пояснения к столбцам:

Ветер - указаны скорость ветра в м/с - средняя за 10 мин, порывы в срок и между сроками (в фигурных скобках) и направление, откуда дует ветер: С - северный, СВ - северо-восточный, В - восточный, ЮВ - юго-восточный, Ю - южный, ЮЗ - юго-западный, З - западный, СЗ - северо-западный.
Видимость - горизонтальная дальность видимости в метрах или километрах. При видимости от 1 до 10 км при отсутствии осадков обычно наблюдается дымка, при ухудшении видимости до 1 км и менее - туман. В сухую погоду видимость может ухудшаться дымом, пылью или мглою.
Явления - указаны атмосферные явления, наблюдавшиеся в срок или в последний час перед сроком; фигурными скобками обозначены явления, наблюдавшиеся между сроками (за 1-3 часа до срока); квадратными скобками обозначены град или гололедные отложения с указанием их диаметра в мм.
Облачность - указаны через наклонную черту общая и нижняя облачность в баллах и высота нижней границы облаков в метрах; квадратными скобками обозначены формы облаков: Ci - перистые, Cs - перисто-слоистые, Cc - перисто-кучевые, Ac - высококучевые, As - высокослоистые, Sc - слоисто-кучевые, Ns - слоисто-дождевые, Cu - кучевые, Cb - кучево-дождевые. Подробнее классификацию облаков см. в Атласе облаков (PDF).
T - Температура воздуха - температура, измеренная на высоте 2 м над землей.
Td - Температура точки росы - температура, при понижении до которой содержащийся в воздухе водяной пар достигнет насыщения.
f - Относительная влажность воздуха - влажноcть воздуха, измеренная на высоте 2 м над землей.
Te - Эффективная температура - температура, которую ощущает одетый по сезону человек в тени. Характеристика душности погоды. При расчете учитывается влияние влажности воздуха и скорости ветра на теплоощущения человека.
Tes - Эффективная температура на солнце - температура, которую ощущает человек, с поправкой на солнечный нагрев. Характеристика знойности погоды. Зависит от высоты солнца над горизонтом, облачности и скорости ветра. Ночью, в пасмурную погоду, а также при ветре 12 м/с и более поправка равна нулю.
P - Атмосферное давление - приведенное к уровню моря атмосферное давление.
Po - Атмосферное давление - измеренное на уровне метеостанции атмосферное давление.
Tmin - Минимальная температура - минимум температуры воздуха на высоте 2 м над землей.
Tmax - Максимальная температура - максимум температуры воздуха на высоте 2 м над землей.
R - Количество осадков - Количество выпавших осадков за период времени, мм. При наведении курсора мыши на число - период времени, за который выпало указанное количество осадков.
R24 - Количество осадков - Количество выпавших осадков за 24 часа, мм.
S - Снежный покров - Высота снежного покрова, см. При наведении курсора мыши на число - состояние снежного покрова и степень покрытия местности в баллах.